Location: Newark
(47.4333°N, 19.2500°E)
Time: 14:52:47
(UTC+00:00)

ISS - Pass Details

Date: 10 March 2021
Orbit: 418 x 422 km, 51.6° (Epoch: 17 April)

Event Time Altitude Azimuth Distance (km) Brightness Sun altitude
Exits shadow 03:12:28 82° 183° (S) 426 -3.9 -19.8°
Drops below altitude 10° 03:15:45 10° 119° (ESE) 1,491 -0.4 -19.3°
Sets 03:17:51 0° 118° (ESE) 2,352 0.8 -19.0°
